User: anonymous   Login
Location: Unspecified
(0.0000°N, 0.0000°E)
Time: 11:05:45
(UTC+00:00)
Language:

TBA - TO BE ASSIGNED - Orbit

View from above orbital plane
View from above orbital plane
View from above satellite
View from above satellite

Ground track
Ground track

The orbit is defined by the following mean orbital elements,

1 67626U          26145.50067310 +.00000000 +00000-0 +44320-3 0 00006
2 67626  43.0053  65.7435 0001224 270.6165  89.4547 15.27593266    03
Epoch (UTC): 25 May 2026 12:00:58
Eccentricity: 0.0001224
inclination: 43.0053°
perigee height: 482 km
apogee height: 484 km
right ascension of ascending node: 65.7435°
argument of perigee: 270.6165°
revolutions per day: 15.27593266
mean anomaly at epoch: 89.4547°

The dashed part of the orbit path shows where the satellite is in the earth's shadow,  

DLR